SCP
-0 0 0 0 0 0 0 0 0 0 0 0 0 0 0 0 0 0 0 0 0 0 0 0 0 0 0 0 0 0 0 0 0 0 0 0 0 0 0 0 0 0 0
-0 0 0 0 0 0 0 0 0 0 0 0 0 0 0 0 0 0 0 0 0 0 0 0 0 0 0 0 0 0 0 0 0 0 0 0 0 0 0 0 0 0 0
0 0 0 0 0 0 0 0 0 0 0 0 0 0 0 0 0 0 0 0 0 0 0 0 0 0 0 0 0 0 0 0 0 0 0 0 0 0 0 0 0 0 0
0 0 0 0 0 0 0 0 0 0 0 0 0 0 0 0 0 0 0 0 0 0 0 0 0 0 0 0 0 0 0 0 0 0 0 0 0 0 0 0 0 0 0
0 0 0 0 0 0 0 0 0 0 0 0 0 0 0 0 0 0 0 0 0 0 0 0 0 0 0 0 0 0 0 0 0 0 0 0 0 0 0 0 0 0 0
0 0 0 0 0 0 0 0 0 0 0 0 0 0 0 0 0 0 0 0 0 0 0 0 0 0 0 0 0 0 0 0 0 0 0 0 0 0 0 0 0 0 0
0 0 0 0 0 0 0 0 0 0 0 0 0 0 0 0 0 0 0 0 0 0 0 0 0 0 0 0 0 0 0 0 0 0 0 0 0 0 0 0 0 0 0
0 0 0 0 0 0 0 0 0 0 0 0 0 0 0 0 0 0 0 0 0 0 0 0 0 0 0 0 0 0 0 0 0 0 0 0 0 0 0 0 0 0 0
0 0 0 0 0 0 0 0 0 0 0 0 0 0 0 0 0 0 0 0 0 0 0 0 0 0 0 0 0 0 0 0 0 0 0 0 0 0 0 0 0 0 0
0 0 0 0 0 0 0 0 0 0 0 0 0 0 0 0 0 0 0 0 0 0 0 0 0 0 0 0 0 0 0 0 0 0 0 0 0 0 0 0 0 0 0
0 0 0 0 0 0 0 0 0 0 0 0 0 0 0 0 0 0 0 0 0 0 0 0 0 0 0 0 0 0 0 0 0 0 0 0 0 0 0 0 0 0 0
-0 -0 0 0 0 0 0 0 0 0 0 0 0 0 0 0 0 0 0 0 0 0 0 0 0 0 0 0 0 0 0 0 0 0 0 0 0 0 0 0 0 0 0
0 -0 -0 -0 -0 0 0 0 0 -0 0 0 0 0 0 0 0 0 0 0 0 0 0 0 0 0 0 0 0 0 0 0 0 0 0 0 0 0 0 0 0 0 0
0 0 0 -0 -0 -0 0 0 0 0 0 0 0 0 0 0 0 0 0 0 0 0 0 0 0 0 0 0 0 0 0 0 0 0 0 0 0 0 0 0 0 0 0
0 0 0 0 0 0 0 0 0 0 0 0 0 0 0 0 0 0 0 0 0 0 0 0 0 0 0 0 0 0 0 0 0 0 0 0 0 0 0 0 0 0 0
0 0 0 0 0 0 0 0 0 0 0 0 0 0 0 0 0 0 0 0 0 0 0 0 0 0 0 0 0 0 0 0 0 0 0 0 0 0 0 0 0 0 0
0 0 0 0 0 0 0 0 -0 0 0 0 0 0 0 0 0 0 0 0 0 0 0 0 0 0 0 0 0 0 0 0 0 0 0 0 0 0 0 0 0 0 0
0 0 0 0 0 0 0 0 0 -0 0 0 0 0 0 0 0 0 0 0 0 0 0 0 0 0 0 0 0 0 0 0 0 0 0 0 0 0 0 0 0 0 0
0 0 0 0 0 0 0 0 0 0 0 0 0 0 0 0 0 0 0 0 0 0 0 0 0 0 0 0 0 0 0 0 0 0 0 0 0 0 0 0 0 0 0
0 0 0 0 0 0 0 0 0 0 0 0 0 0 0 0 0 0 0 0 0 0 0 0 0 0 0 0 0 0 0 0 0 0 0 0 0 0 0 0 0 0 0
0 0 0 0 0 0 0 0 0 0 0 0 0 0 0 0 0 0 0 0 0 0 0 0 0 0 0 0 0 0 0 0 0 0 0 0 0 0 0 0 0 0 0
0 0 0 0 0 0 0 0 0 0 0 0 0 0 0 0 0 0 0 0 0 0 0 0 0 0 0 0 0 0 0 0 0 0 0 0 0 0 0 0 0 0 0
0 0 0 0 0 0 0 0 0 0 0 0 0 0 0 0 0 0 0 0 0 0 0 0 0 0 0 0 0 0 0 0 0 0 0 0 0 0 0 0 0 0 0
0 0 0 0 0 0 0 0 0 0 0 0 0 0 0 0 0 0 0 0 0 0 0 0 0 0 0 0 0 0 0 0 0 0 0 0 0 0 0 0 0 0 0
0 0 0 0 0 0 0 0 0 0 0 0 0 0 0 0 0 0 0 0 0 0 0 0 0 0 0 0 0 0 0 0 0 0 0 0 0 0 0 0 0 0 0
0 0 0 0 0 0 0 0 0 0 0 0 0 0 0 0 0 0 0 0 0 0 0 0 0 0 0 0 0 0 0 0 0 0 0 0 0 0 0 0 0 0 0
Wind_Speed_500mb
61 66 66 65 66 61 62 66 72 71 76 81 83 85 81 76 76 73 69 67 65 63 60 58 57 56 55 51 47 45 43 41 39 35 31 34 31 31 33 36 34 32 30
68 61 73 78 74 73 72 70 72 77 78 82 82 86 83 84 83 79 77 76 75 71 69 67 65 63 61 59 57 54 51 48 45 37 23 19 26 36 39 43 39 33 29
75 75 84 86 91 85 82 80 78 78 81 82 84 88 84 87 88 88 86 86 82 78 77 74 72 70 67 67 65 61 59 54 51 46 31 13 21 16 20 22 22 20 18
64 77 81 75 84 101 96 88 82 84 87 84 91 97 97 98 91 90 87 88 86 85 83 80 78 75 75 74 71 67 64 60 56 53 56 52 41 22 16 29 31 30 29
60 66 80 81 83 86 102 101 95 91 89 90 93 98 100 99 96 94 88 87 86 88 89 88 82 82 84 79 77 74 71 69 67 66 56 58 59 57 53 40 38 45 44
51 55 67 69 75 82 85 100 101 99 91 89 93 99 100 98 103 103 98 94 90 88 88 89 89 91 90 87 83 81 77 73 72 70 68 67 63 65 65 64 60 53 46
50 54 58 58 66 74 79 78 100 112 108 97 95 96 97 101 105 102 101 97 98 94 89 87 89 94 97 94 89 87 84 80 80 77 77 72 73 68 66 64 62 61 60
49 52 57 64 67 61 61 66 85 102 113 105 102 102 101 104 105 104 104 101 98 92 86 83 82 84 88 90 92 92 90 86 85 85 80 78 75 73 73 74 69 62 71
39 47 48 46 47 60 69 59 72 86 98 110 110 107 104 106 105 102 103 101 97 89 84 82 79 76 72 76 82 89 90 89 89 89 85 83 81 76 75 76 71 75 63
47 47 51 47 41 45 52 51 59 68 77 91 101 106 111 111 103 100 103 99 93 91 85 82 80 75 70 70 71 74 78 82 85 88 88 86 83 82 80 78 78 79 83
52 55 64 65 60 37 31 40 57 59 69 77 85 92 100 104 103 102 100 99 93 92 89 81 76 73 72 71 70 71 72 76 79 81 82 80 76 75 72 66 70 80 82
74 67 71 70 70 59 39 38 49 61 59 66 75 81 86 94 98 99 96 93 91 88 87 81 73 69 71 71 70 70 73 76 79 77 75 72 63 62 60 63 72 78 79
74 75 68 66 64 69 52 38 56 55 60 60 67 74 79 85 94 94 89 88 84 80 81 81 76 71 68 70 69 70 71 75 76 73 71 68 62 61 64 65 66 70 73
62 76 75 80 78 68 56 44 47 56 58 58 59 66 70 75 82 82 80 79 78 73 75 74 74 70 69 69 70 71 71 74 73 69 67 63 64 63 59 65 65 64 67
57 70 76 82 78 55 55 53 48 48 56 56 54 58 64 65 68 70 71 71 71 66 67 69 70 70 70 70 71 70 71 71 70 68 69 66 65 62 61 64 60 61 52
59 69 73 84 75 68 61 50 42 44 47 54 54 60 60 58 60 62 61 60 61 61 62 65 66 66 69 70 67 65 67 70 74 76 69 64 59 60 58 60 51 55 56
76 73 76 80 67 62 54 45 33 33 39 40 42 49 51 51 53 52 53 55 55 54 56 58 58 61 63 62 60 60 63 65 68 73 64 62 60 61 57 55 58 59 62
72 76 75 77 70 57 54 40 28 22 29 33 32 36 42 43 44 46 46 46 49 50 52 55 57 59 60 60 61 61 63 66 67 64 63 59 62 61 59 57 62 54 56
67 72 67 68 63 49 45 47 32 22 13 24 30 31 32 35 38 38 38 40 43 45 47 48 51 54 54 57 59 57 60 60 59 57 63 60 62 60 56 56 53 57 58
66 67 56 47 52 40 42 42 35 28 18 15 21 28 31 33 32 32 35 35 37 38 39 40 43 44 43 40 34 39 47 57 61 56 49 54 56 61 59 58 59 56 57
66 62 53 41 41 42 34 39 38 33 23 25 25 27 30 31 33 35 33 32 32 34 36 36 37 37 38 41 44 49 52 52 56 59 60 58 59 58 57 58 56 49 45
68 63 59 48 36 34 35 37 41 38 35 35 37 37 39 40 36 35 33 33 33 33 34 35 36 36 38 40 42 47 50 53 61 60 58 56 47 35 32 33 39 40 40
62 57 55 51 43 33 34 35 37 41 41 45 44 43 43 40 40 38 35 35 36 37 38 40 40 39 39 39 36 37 33 28 28 29 29 28 28 30 32 34 34 33 31
60 57 54 50 45 40 33 32 31 36 41 43 47 43 43 41 38 36 34 35 36 37 38 40 38 35 35 34 34 32 31 29 29 30 32 30 29 29 30 30 29 25 23
54 53 49 49 46 41 38 34 31 30 33 37 40 42 41 39 40 41 39 38 39 39 42 40 35 33 34 32 30 30 33 30 30 30 30 29 29 29 29 25 22 20 17
50 52 47 42 43 43 38 36 33 34 31 30 34 35 34 36 37 40 37 35 30 32 32 27 25 27 26 31 28 29 29 28 27 29 31 32 29 26 24 22 20 16 15
Wind_Direction_500mb
265 257 248 248 246 245 246 242 237 236 233 232 233 235 236 235 235 235 235 235 234 234 233 234 234 235 236 238 240 242 244 243 246 251 258 260 258 264 269 269 272 273 270
262 256 254 251 245 243 242 241 241 237 234 234 236 237 239 239 239 239 238 237 236 235 235 235 237 238 238 240 241 241 244 244 245 244 243 252 266 267 261 264 263 266 265
260 257 259 252 249 246 241 241 241 241 239 236 234 237 236 239 241 240 239 238 238 238 238 238 238 239 239 241 243 244 243 246 248 244 233 225 237 224 256 251 245 240 248
257 263 260 250 247 246 246 244 242 241 239 234 235 235 235 237 239 240 240 241 239 240 240 241 239 240 242 241 244 246 246 245 244 247 243 241 238 238 256 249 249 248 257
267 263 268 265 258 254 248 246 243 241 242 240 236 238 238 241 244 245 245 244 242 242 242 242 242 241 243 243 244 245 244 246 246 248 249 247 247 245 248 254 253 250 261
276 277 276 277 265 257 250 249 246 243 240 241 241 241 242 242 242 243 245 245 244 242 242 243 243 243 244 244 244 246 247 247 249 249 249 249 245 245 242 244 250 256 259
285 281 277 283 278 252 253 252 248 244 242 242 244 245 244 243 242 245 247 246 246 245 243 243 243 243 244 244 244 246 248 247 249 249 251 251 251 253 250 249 257 250 255
302 293 294 293 278 269 257 256 252 246 244 245 247 247 244 243 243 243 246 246 248 250 251 248 246 246 247 246 246 246 248 248 249 250 250 253 253 252 253 253 251 249 254
327 328 325 303 283 269 267 265 256 250 246 247 250 249 245 243 243 243 244 247 248 251 251 251 249 247 248 247 246 246 248 248 248 249 250 252 255 254 253 255 254 255 248
354 358 1 343 305 276 266 258 255 251 252 252 252 252 248 245 244 243 242 244 247 248 248 248 249 249 247 247 246 246 246 247 246 248 249 250 252 254 255 254 251 253 258
341 351 358 355 343 311 300 278 263 257 259 253 251 252 249 245 242 243 243 244 245 247 247 247 247 246 246 247 246 245 244 243 246 247 248 249 250 253 254 256 254 253 257
316 319 322 329 340 334 304 307 272 254 263 255 251 251 249 247 244 244 245 245 246 246 246 246 245 244 243 245 244 245 244 245 244 247 249 251 248 245 250 252 253 255 258
313 315 320 323 330 333 323 280 294 269 264 264 252 248 248 247 245 244 243 245 247 247 246 244 243 242 241 242 242 243 244 245 246 248 249 251 245 247 252 253 254 257 259
306 309 310 311 314 316 317 300 264 277 262 260 255 249 246 245 245 244 244 243 243 244 245 242 242 242 242 243 243 243 243 244 245 247 248 250 246 251 254 256 258 257 259
299 304 306 313 313 311 318 308 284 266 261 256 256 252 247 244 243 243 242 242 242 240 241 240 239 240 240 242 242 243 244 246 246 246 245 250 245 250 251 256 253 256 259
304 302 301 302 306 305 306 304 288 273 261 253 251 250 248 245 238 238 239 239 239 238 236 237 240 240 241 243 245 244 245 244 245 245 250 243 248 250 250 250 248 253 255
306 306 303 302 305 302 306 307 296 279 263 257 247 245 240 234 233 232 232 233 235 236 236 238 242 244 248 248 246 245 245 247 247 251 247 247 248 249 246 248 250 250 250
318 314 312 312 313 303 301 300 294 289 277 266 253 238 233 232 232 231 231 232 235 236 239 241 243 245 247 246 244 242 240 243 246 246 243 246 246 244 242 247 252 250 254
320 319 301 307 314 301 289 288 279 258 268 260 251 238 227 222 222 225 227 228 231 233 236 239 241 243 245 245 244 241 238 239 243 241 241 241 245 247 251 250 249 250 252
339 332 314 307 314 308 285 275 267 270 264 250 245 235 223 217 217 222 230 234 235 237 238 238 240 242 242 241 237 235 235 237 237 232 239 243 245 246 246 249 247 251 256
343 345 330 315 307 304 287 274 263 258 253 247 237 238 235 230 224 226 230 236 240 244 248 248 249 252 251 249 240 238 235 237 239 241 243 240 244 248 245 248 252 251 249
341 345 344 333 317 304 291 277 273 269 252 236 244 243 243 242 237 238 240 243 248 249 250 252 251 250 248 243 237 236 240 237 236 240 242 246 245 240 237 231 235 242 245
338 343 343 339 326 312 300 292 277 266 260 255 237 240 245 244 243 243 242 244 248 250 252 253 251 249 246 244 238 230 226 220 220 221 225 226 226 230 233 232 235 233 232
330 336 340 336 330 319 308 298 289 277 267 258 259 247 241 248 249 249 252 253 253 257 257 256 254 248 243 239 231 219 207 209 212 214 218 222 223 222 225 226 225 222 220
323 326 331 331 328 322 310 303 295 285 278 267 258 250 248 240 230 230 236 245 249 252 253 253 249 244 238 220 216 218 211 211 210 210 210 209 207 206 207 209 212 219 224
315 317 321 323 324 320 312 306 299 290 276 267 259 249 241 236 233 231 226 224 227 233 233 220 221 211 204 207 212 207 203 207 210 205 202 195 194 199 203 203 204 206 217
Wind_Speed_850mb
61 66 66 65 66 61 62 66 72 71 76 81 83 85 81 76 76 73 69 67 65 63 60 58 57 56 55 51 47 45 43 41 39 35 31 34 31 31 33 36 34 32 30
68 61 73 78 74 73 72 70 72 77 78 82 82 86 83 84 83 79 77 76 75 71 69 67 65 63 61 59 57 54 51 48 45 37 23 19 26 36 39 43 39 33 29
75 75 84 86 91 85 82 80 78 78 81 82 84 88 84 87 88 88 86 86 82 78 77 74 72 70 67 67 65 61 59 54 51 46 31 13 21 16 20 22 22 20 18
64 77 81 75 84 101 96 88 82 84 87 84 91 97 97 98 91 90 87 88 86 85 83 80 78 75 75 74 71 67 64 60 56 53 56 52 41 22 16 29 31 30 29
60 66 80 81 83 86 102 101 95 91 89 90 93 98 100 99 96 94 88 87 86 88 89 88 82 82 84 79 77 74 71 69 67 66 56 58 59 57 53 40 38 45 44
51 55 67 69 75 82 85 100 101 99 91 89 93 99 100 98 103 103 98 94 90 88 88 89 89 91 90 87 83 81 77 73 72 70 68 67 63 65 65 64 60 53 46
50 54 58 58 66 74 79 78 100 112 108 97 95 96 97 101 105 102 101 97 98 94 89 87 89 94 97 94 89 87 84 80 80 77 77 72 73 68 66 64 62 61 60
49 52 57 64 67 61 61 66 85 102 113 105 102 102 101 104 105 104 104 101 98 92 86 83 82 84 88 90 92 92 90 86 85 85 80 78 75 73 73 74 69 62 71
39 47 48 46 47 60 69 59 72 86 98 110 110 107 104 106 105 102 103 101 97 89 84 82 79 76 72 76 82 89 90 89 89 89 85 83 81 76 75 76 71 75 63
47 47 51 47 41 45 52 51 59 68 77 91 101 106 111 111 103 100 103 99 93 91 85 82 80 75 70 70 71 74 78 82 85 88 88 86 83 82 80 78 78 79 83
52 55 64 65 60 37 31 40 57 59 69 77 85 92 100 104 103 102 100 99 93 92 89 81 76 73 72 71 70 71 72 76 79 81 82 80 76 75 72 66 70 80 82
74 67 71 70 70 59 39 38 49 61 59 66 75 81 86 94 98 99 96 93 91 88 87 81 73 69 71 71 70 70 73 76 79 77 75 72 63 62 60 63 72 78 79
74 75 68 66 64 69 52 38 56 55 60 60 67 74 79 85 94 94 89 88 84 80 81 81 76 71 68 70 69 70 71 75 76 73 71 68 62 61 64 65 66 70 73
62 76 75 80 78 68 56 44 47 56 58 58 59 66 70 75 82 82 80 79 78 73 75 74 74 70 69 69 70 71 71 74 73 69 67 63 64 63 59 65 65 64 67
57 70 76 82 78 55 55 53 48 48 56 56 54 58 64 65 68 70 71 71 71 66 67 69 70 70 70 70 71 70 71 71 70 68 69 66 65 62 61 64 60 61 52
59 69 73 84 75 68 61 50 42 44 47 54 54 60 60 58 60 62 61 60 61 61 62 65 66 66 69 70 67 65 67 70 74 76 69 64 59 60 58 60 51 55 56
76 73 76 80 67 62 54 45 33 33 39 40 42 49 51 51 53 52 53 55 55 54 56 58 58 61 63 62 60 60 63 65 68 73 64 62 60 61 57 55 58 59 62
72 76 75 77 70 57 54 40 28 22 29 33 32 36 42 43 44 46 46 46 49 50 52 55 57 59 60 60 61 61 63 66 67 64 63 59 62 61 59 57 62 54 56
67 72 67 68 63 49 45 47 32 22 13 24 30 31 32 35 38 38 38 40 43 45 47 48 51 54 54 57 59 57 60 60 59 57 63 60 62 60 56 56 53 57 58
66 67 56 47 52 40 42 42 35 28 18 15 21 28 31 33 32 32 35 35 37 38 39 40 43 44 43 40 34 39 47 57 61 56 49 54 56 61 59 58 59 56 57
66 62 53 41 41 42 34 39 38 33 23 25 25 27 30 31 33 35 33 32 32 34 36 36 37 37 38 41 44 49 52 52 56 59 60 58 59 58 57 58 56 49 45
68 63 59 48 36 34 35 37 41 38 35 35 37 37 39 40 36 35 33 33 33 33 34 35 36 36 38 40 42 47 50 53 61 60 58 56 47 35 32 33 39 40 40
62 57 55 51 43 33 34 35 37 41 41 45 44 43 43 40 40 38 35 35 36 37 38 40 40 39 39 39 36 37 33 28 28 29 29 28 28 30 32 34 34 33 31
60 57 54 50 45 40 33 32 31 36 41 43 47 43 43 41 38 36 34 35 36 37 38 40 38 35 35 34 34 32 31 29 29 30 32 30 29 29 30 30 29 25 23
54 53 49 49 46 41 38 34 31 30 33 37 40 42 41 39 40 41 39 38 39 39 42 40 35 33 34 32 30 30 33 30 30 30 30 29 29 29 29 25 22 20 17
50 52 47 42 43 43 38 36 33 34 31 30 34 35 34 36 37 40 37 35 30 32 32 27 25 27 26 31 28 29 29 28 27 29 31 32 29 26 24 22 20 16 15
Wind_Direction_850mb
265 257 248 248 246 245 246 242 237 236 233 232 233 235 236 235 235 235 235 235 234 234 233 234 234 235 236 238 240 242 244 243 246 251 258 260 258 264 269 269 272 273 270
262 256 254 251 245 243 242 241 241 237 234 234 236 237 239 239 239 239 238 237 236 235 235 235 237 238 238 240 241 241 244 244 245 244 243 252 266 267 261 264 263 266 265
260 257 259 252 249 246 241 241 241 241 239 236 234 237 236 239 241 240 239 238 238 238 238 238 238 239 239 241 243 244 243 246 248 244 233 225 237 224 256 251 245 240 248
257 263 260 250 247 246 246 244 242 241 239 234 235 235 235 237 239 240 240 241 239 240 240 241 239 240 242 241 244 246 246 245 244 247 243 241 238 238 256 249 249 248 257
267 263 268 265 258 254 248 246 243 241 242 240 236 238 238 241 244 245 245 244 242 242 242 242 242 241 243 243 244 245 244 246 246 248 249 247 247 245 248 254 253 250 261
276 277 276 277 265 257 250 249 246 243 240 241 241 241 242 242 242 243 245 245 244 242 242 243 243 243 244 244 244 246 247 247 249 249 249 249 245 245 242 244 250 256 259
285 281 277 283 278 252 253 252 248 244 242 242 244 245 244 243 242 245 247 246 246 245 243 243 243 243 244 244 244 246 248 247 249 249 251 251 251 253 250 249 257 250 255
302 293 294 293 278 269 257 256 252 246 244 245 247 247 244 243 243 243 246 246 248 250 251 248 246 246 247 246 246 246 248 248 249 250 250 253 253 252 253 253 251 249 254
327 328 325 303 283 269 267 265 256 250 246 247 250 249 245 243 243 243 244 247 248 251 251 251 249 247 248 247 246 246 248 248 248 249 250 252 255 254 253 255 254 255 248
354 358 1 343 305 276 266 258 255 251 252 252 252 252 248 245 244 243 242 244 247 248 248 248 249 249 247 247 246 246 246 247 246 248 249 250 252 254 255 254 251 253 258
341 351 358 355 343 311 300 278 263 257 259 253 251 252 249 245 242 243 243 244 245 247 247 247 247 246 246 247 246 245 244 243 246 247 248 249 250 253 254 256 254 253 257
316 319 322 329 340 334 304 307 272 254 263 255 251 251 249 247 244 244 245 245 246 246 246 246 245 244 243 245 244 245 244 245 244 247 249 251 248 245 250 252 253 255 258
313 315 320 323 330 333 323 280 294 269 264 264 252 248 248 247 245 244 243 245 247 247 246 244 243 242 241 242 242 243 244 245 246 248 249 251 245 247 252 253 254 257 259
306 309 310 311 314 316 317 300 264 277 262 260 255 249 246 245 245 244 244 243 243 244 245 242 242 242 242 243 243 243 243 244 245 247 248 250 246 251 254 256 258 257 259
299 304 306 313 313 311 318 308 284 266 261 256 256 252 247 244 243 243 242 242 242 240 241 240 239 240 240 242 242 243 244 246 246 246 245 250 245 250 251 256 253 256 259
304 302 301 302 306 305 306 304 288 273 261 253 251 250 248 245 238 238 239 239 239 238 236 237 240 240 241 243 245 244 245 244 245 245 250 243 248 250 250 250 248 253 255
306 306 303 302 305 302 306 307 296 279 263 257 247 245 240 234 233 232 232 233 235 236 236 238 242 244 248 248 246 245 245 247 247 251 247 247 248 249 246 248 250 250 250
318 314 312 312 313 303 301 300 294 289 277 266 253 238 233 232 232 231 231 232 235 236 239 241 243 245 247 246 244 242 240 243 246 246 243 246 246 244 242 247 252 250 254
320 319 301 307 314 301 289 288 279 258 268 260 251 238 227 222 222 225 227 228 231 233 236 239 241 243 245 245 244 241 238 239 243 241 241 241 245 247 251 250 249 250 252
339 332 314 307 314 308 285 275 267 270 264 250 245 235 223 217 217 222 230 234 235 237 238 238 240 242 242 241 237 235 235 237 237 232 239 243 245 246 246 249 247 251 256
343 345 330 315 307 304 287 274 263 258 253 247 237 238 235 230 224 226 230 236 240 244 248 248 249 252 251 249 240 238 235 237 239 241 243 240 244 248 245 248 252 251 249
341 345 344 333 317 304 291 277 273 269 252 236 244 243 243 242 237 238 240 243 248 249 250 252 251 250 248 243 237 236 240 237 236 240 242 246 245 240 237 231 235 242 245
338 343 343 339 326 312 300 292 277 266 260 255 237 240 245 244 243 243 242 244 248 250 252 253 251 249 246 244 238 230 226 220 220 221 225 226 226 230 233 232 235 233 232
330 336 340 336 330 319 308 298 289 277 267 258 259 247 241 248 249 249 252 253 253 257 257 256 254 248 243 239 231 219 207 209 212 214 218 222 223 222 225 226 225 222 220
323 326 331 331 328 322 310 303 295 285 278 267 258 250 248 240 230 230 236 245 249 252 253 253 249 244 238 220 216 218 211 211 210 210 210 209 207 206 207 209 212 219 224
315 317 321 323 324 320 312 306 299 290 276 267 259 249 241 236 233 231 226 224 227 233 233 220 221 211 204 207 212 207 203 207 210 205 202 195 194 199 203 203 204 206 217